Weather History for Weslaco, TX

Change the Weather History Date:

Thursday, May 16, 2013

  Actual Average (KMFE) Record (KMFE)
Temperature  
Mean Temperature 80 °F 82 °F  
Max Temperature 89 °F 92 °F 100 °F (2003)
Min Temperature 72 °F 72 °F 51 °F (1945)
Degree Days  
Heating Degree Days 0 0  
Month to date heating degree days 0  
Since 1 July heating degree days 579  
Cooling Degree Days 16 17  
Month to date cooling degree days 248  
Year to date cooling degree days 979  
Growing Degree Days 30 (Base 50)    
Moisture  
Dew Point 70 °F    
Average Humidity 74    
Maximum Humidity 89    
Minimum Humidity 57    
Precipitation  
Precipitation 0.00 in 0.08 in 1.38 in (1970)
Month to date precipitation 1.15  
Year to date precipitation 5.68  
Sea Level Pressure  
Sea Level Pressure 29.82 in    
Wind  
Wind Speed 13 mph (SSE)    
Max Wind Speed 18 mph    
Max Gust Speed 26 mph    
Visibility 8 miles    
Events      
T = Trace of Precipitation, MM = Missing Value Source: NWS Daily Summary

Daily Weather History Graph

Daily Weather History Graph

Search for Another Location

Airport:

Trip Planner

Search our weather history database for the weather conditions in past years. The results will help you decide how hot, cold, wet, or windy it might be!

Date:

Astronomy

May. 16, 2013 Rise Set
Actual Time 6:44 AM CDT 8:11 PM CDT
Civil Twilight 6:19 AM CDT 8:37 PM CDT
Nautical Twilight 5:49 AM CDT 9:07 PM CDT
Astronomical Twilight 5:18 AM CDT 9:38 PM CDT
Moon 12:09 PM CDT (5/16) 12:42 AM CDT (5/16)
Length of Visible Light 14h 17m
Length of Day
13h 27m
Waxing Crescent, 36% of the Moon is Illuminated
May 16
Waxing Crescent
May 17
First Quarter
May 24
Full
May 31
Last Quarter
Jun 8
New

Hourly Weather History & Observations

Time (CDT) Temp. Heat Index Dew Point Humidity Pressure Visibility Wind Dir Wind Speed Gust Speed Precip Events Conditions
12:15 AM 74.3 °F - 69.4 °F 85% 29.91 in 10.0 mi SSE 16.1 mph 23.0 mph N/A   Overcast
12:35 AM 74.3 °F - 69.4 °F 85% 29.91 in 10.0 mi South 10.4 mph 17.3 mph N/A   Overcast
12:55 AM 73.9 °F - 69.4 °F 86% 29.90 in 10.0 mi SSE 12.7 mph - N/A   Overcast
1:15 AM 73.8 °F - 69.3 °F 86% 29.89 in 10.0 mi South 13.8 mph 19.6 mph N/A   Overcast
1:35 AM 73.9 °F - 69.4 °F 86% 29.88 in 10.0 mi South 12.7 mph 17.3 mph N/A   Overcast
1:55 AM 73.9 °F - 69.3 °F 85% 29.88 in 10.0 mi SSE 12.7 mph - N/A   Overcast
2:15 AM 74.1 °F - 69.3 °F 85% 29.87 in 10.0 mi SSE 10.4 mph 16.1 mph N/A   Overcast
2:35 AM 73.9 °F - 69.1 °F 85% 29.87 in 10.0 mi South 9.2 mph - N/A   Overcast
2:55 AM 73.9 °F - 68.9 °F 84% 29.87 in 10.0 mi South 12.7 mph 17.3 mph N/A   Overcast
3:15 AM 74.3 °F - 68.9 °F 83% 29.86 in 10.0 mi South 12.7 mph 18.4 mph N/A   Overcast
3:35 AM 73.9 °F - 68.9 °F 84% 29.85 in 10.0 mi South 13.8 mph 19.6 mph N/A   Overcast
3:55 AM 73.8 °F - 68.9 °F 85% 29.85 in 10.0 mi South 12.7 mph 19.6 mph N/A   Overcast
4:15 AM 73.6 °F - 68.5 °F 84% 29.85 in 10.0 mi South 13.8 mph 17.3 mph N/A   Mostly Cloudy
4:35 AM 73.4 °F - 68.7 °F 85% 29.84 in 10.0 mi South 12.7 mph 17.3 mph N/A   Overcast
4:55 AM 73.4 °F - 68.9 °F 86% 29.84 in 10.0 mi South 13.8 mph 17.3 mph N/A   Overcast
5:15 AM 73.4 °F - 68.9 °F 86% 29.84 in 10.0 mi South 11.5 mph 17.3 mph N/A   Overcast
5:35 AM 73.4 °F - 68.9 °F 86% 29.84 in 10.0 mi South 12.7 mph 17.3 mph N/A   Overcast
5:55 AM 73.4 °F - 68.9 °F 86% 29.84 in 10.0 mi South 10.4 mph - N/A   Overcast
6:15 AM 72.9 °F - 68.9 °F 87% 29.84 in 10.0 mi South 8.1 mph - N/A   Overcast
6:35 AM 72.5 °F - 68.9 °F 88% 29.84 in 7.0 mi SSE 8.1 mph - N/A   Mostly Cloudy
6:55 AM 72.5 °F - 68.9 °F 88% 29.83 in 7.0 mi South 8.1 mph - N/A   Scattered Clouds
7:15 AM 72.5 °F - 69.1 °F 89% 29.84 in 7.0 mi South 9.2 mph - N/A   Scattered Clouds
7:35 AM 73.4 °F - 69.4 °F 87% 29.85 in 7.0 mi South 10.4 mph - N/A   Mostly Cloudy
7:55 AM 74.3 °F - 69.6 °F 85% 29.85 in 7.0 mi South 10.4 mph - N/A   Mostly Cloudy
8:15 AM 75.4 °F - 69.8 °F 83% 29.85 in 10.0 mi South 9.2 mph 17.3 mph N/A   Overcast
8:35 AM 77.0 °F - 70.0 °F 79% 29.84 in 10.0 mi South 12.7 mph 18.4 mph N/A   Mostly Cloudy
8:55 AM 78.1 °F - 69.8 °F 76% 29.85 in 7.0 mi South 15.0 mph 18.4 mph N/A   Mostly Cloudy
9:15 AM 79.2 °F - 69.4 °F 72% 29.85 in 10.0 mi South 18.4 mph 23.0 mph N/A   Scattered Clouds
9:35 AM 80.4 °F 83.5 °F 69.4 °F 69% 29.85 in 10.0 mi South 15.0 mph 23.0 mph N/A   Clear
9:55 AM 81.7 °F 85.1 °F 69.4 °F 66% 29.85 in 7.0 mi South 16.1 mph 20.7 mph N/A   Clear
10:15 AM 82.6 °F 86.4 °F 69.6 °F 65% 29.84 in 7.0 mi South 15.0 mph 21.9 mph N/A   Clear
10:35 AM 83.3 °F 87.1 °F 69.6 °F 63% 29.84 in 5.0 mi South 17.3 mph 23.0 mph N/A   Haze
10:55 AM 84.2 °F 88.1 °F 69.3 °F 61% 29.84 in 7.0 mi South 17.3 mph 24.2 mph N/A   Clear
11:15 AM 84.6 °F 88.5 °F 69.4 °F 60% 29.85 in 7.0 mi SSE 13.8 mph 21.9 mph N/A   Clear
11:35 AM 85.5 °F 90.1 °F 70.2 °F 60% 29.84 in 7.0 mi South 17.3 mph 21.9 mph N/A   Scattered Clouds
11:55 AM 86.4 °F 91.4 °F 70.7 °F 59% 29.84 in 7.0 mi SSE 15.0 mph 21.9 mph N/A   Scattered Clouds
12:15 PM 86.9 °F 92.5 °F 70.9 °F 59% 29.84 in 7.0 mi SSE 13.8 mph 21.9 mph N/A   Mostly Cloudy
12:35 PM 87.6 °F 93.9 °F 71.6 °F 59% 29.83 in 7.0 mi SSE 15.0 mph 20.7 mph N/A   Mostly Cloudy
12:55 PM 87.6 °F 93.5 °F 71.1 °F 58% 29.83 in 7.0 mi South 17.3 mph 23.0 mph N/A   Mostly Cloudy
1:15 PM 87.4 °F 93.1 °F 71.2 °F 58% 29.82 in 7.0 mi SSE 15.0 mph 23.0 mph N/A   Mostly Cloudy
1:35 PM 88.2 °F 94.6 °F 71.8 °F 58% 29.81 in 7.0 mi South 13.8 mph 24.2 mph N/A   Mostly Cloudy
2:15 PM 89.1 °F 96.0 °F 72.0 °F 57% 29.80 in 7.0 mi SSE 12.7 mph 23.0 mph N/A   Mostly Cloudy
2:35 PM 88.5 °F 95.3 °F 72.0 °F 58% 29.80 in 7.0 mi SSE 17.3 mph 23.0 mph N/A   Scattered Clouds
2:55 PM 88.3 °F 95.0 °F 72.0 °F 58% 29.79 in 7.0 mi SSE 16.1 mph 24.2 mph N/A   Scattered Clouds
3:15 PM 88.7 °F 95.7 °F 72.0 °F 58% 29.79 in 7.0 mi SSE 18.4 mph 24.2 mph N/A   Scattered Clouds
3:35 PM 88.7 °F 95.2 °F 71.8 °F 57% 29.78 in 7.0 mi South 16.1 mph 24.2 mph N/A   Clear
3:55 PM 88.7 °F 95.2 °F 71.6 °F 57% 29.77 in 7.0 mi SSE 17.3 mph 24.2 mph N/A   Clear
4:15 PM 89.6 °F 97.2 °F 72.3 °F 57% 29.76 in 7.0 mi SSE 13.8 mph 23.0 mph N/A   Clear
4:35 PM 88.7 °F 95.2 °F 71.6 °F 57% 29.76 in 7.0 mi South 17.3 mph 23.0 mph N/A   Clear
5:15 PM 87.4 °F 93.5 °F 71.6 °F 59% 29.75 in 5.0 mi SSE 15.0 mph 26.5 mph N/A   Haze
5:35 PM 87.3 °F 93.2 °F 71.4 °F 59% 29.75 in 7.0 mi SSE 15.0 mph 21.9 mph N/A   Clear
5:55 PM 86.7 °F 92.1 °F 70.9 °F 59% 29.75 in 7.0 mi SSE 15.0 mph - N/A   Clear
6:15 PM 86.7 °F 92.1 °F 70.9 °F 59% 29.75 in 7.0 mi South 12.7 mph 21.9 mph N/A   Clear
6:35 PM 85.5 °F 90.8 °F 71.1 °F 62% 29.75 in 7.0 mi SSE 17.3 mph 23.0 mph N/A   Clear
6:55 PM 84.4 °F 89.0 °F 70.7 °F 63% 29.75 in 5.0 mi SSE 16.1 mph 23.0 mph N/A   Haze
7:15 PM 83.5 °F 88.0 °F 70.7 °F 65% 29.75 in 5.0 mi SSE 12.7 mph 19.6 mph N/A   Haze
7:35 PM 82.4 °F 86.7 °F 70.9 °F 68% 29.76 in 5.0 mi South 12.7 mph 18.4 mph N/A   Haze
7:55 PM 81.5 °F 84.9 °F 69.4 °F 67% 29.77 in 10.0 mi SSE 16.1 mph 21.9 mph N/A   Clear
8:15 PM 80.6 °F 83.9 °F 69.8 °F 70% 29.77 in 10.0 mi SSE 12.7 mph 21.9 mph N/A   Clear
8:35 PM 79.5 °F - 70.5 °F 74% 29.78 in 10.0 mi SSE 12.7 mph 18.4 mph N/A   Clear
8:55 PM 78.8 °F - 70.7 °F 76% 29.79 in 10.0 mi SSE 13.8 mph 18.4 mph N/A   Clear
9:15 PM 77.9 °F - 70.7 °F 78% 29.79 in 10.0 mi SSE 11.5 mph 19.6 mph N/A   Clear
9:35 PM 77.4 °F - 70.9 °F 80% 29.79 in 7.0 mi South 15.0 mph 19.6 mph N/A   Clear
9:55 PM 77.0 °F - 70.7 °F 81% 29.80 in 7.0 mi SSE 12.7 mph 18.4 mph N/A   Clear
10:15 PM 76.3 °F - 70.7 °F 83% 29.80 in 7.0 mi SSE 11.5 mph - N/A   Clear
10:35 PM 76.1 °F - 70.7 °F 83% 29.81 in 7.0 mi SSE 11.5 mph - N/A   Clear
10:55 PM 75.6 °F - 70.7 °F 85% 29.81 in 7.0 mi SSE 12.7 mph - N/A   Scattered Clouds
11:15 PM 75.6 °F - 70.9 °F 85% 29.82 in 7.0 mi SSE 9.2 mph 18.4 mph N/A   Mostly Cloudy
11:35 PM 75.4 °F - 70.9 °F 86% 29.82 in 7.0 mi SSE 13.8 mph 19.6 mph N/A   Overcast
11:55 PM 75.2 °F - 70.7 °F 86% 29.82 in 7.0 mi SSE 11.5 mph 17.3 mph N/A   Mostly Cloudy